TimePDT,TemperatureF,Dew PointF,Humidity,Sea Level PressureIn,VisibilityMPH,Wind Direction,Wind SpeedMPH,Gust SpeedMPH,PrecipitationIn,Events,Conditions,WindDirDegrees,DateUTC
12:53 AM,68.0,55.9,65,29.98,10.0,West,12.7,-,N/A,,Clear,260,2013-06-30 07:53:00
1:53 AM,64.9,55.0,70,29.99,10.0,West,8.1,-,N/A,,Clear,270,2013-06-30 08:53:00
2:53 AM,61.0,54.0,78,29.99,10.0,Calm,Calm,-,N/A,,Clear,0,2013-06-30 09:53:00
3:53 AM,57.9,53.1,84,29.99,10.0,Calm,Calm,-,N/A,,Clear,0,2013-06-30 10:53:00
4:53 AM,55.0,51.1,86,30.00,10.0,Calm,Calm,-,N/A,,Clear,0,2013-06-30 11:53:00
5:53 AM,55.0,51.1,86,30.02,10.0,South,3.5,-,N/A,,Clear,190,2013-06-30 12:53:00
6:53 AM,66.9,55.0,66,30.00,10.0,Calm,Calm,-,N/A,,Clear,0,2013-06-30 13:53:00
7:53 AM,75.0,55.9,51,30.00,10.0,Calm,Calm,-,N/A,,Clear,0,2013-06-30 14:53:00
8:53 AM,78.1,55.9,46,30.00,10.0,Variable,3.5,-,N/A,,Clear,0,2013-06-30 15:53:00
9:53 AM,82.9,55.0,38,29.99,10.0,NE,5.8,-,N/A,,Clear,40,2013-06-30 16:53:00
10:53 AM,88.0,55.0,32,29.97,10.0,Variable,6.9,-,N/A,,Clear,0,2013-06-30 17:53:00
11:53 AM,90.0,52.0,27,29.96,10.0,NNE,11.5,16.1,N/A,,Clear,30,2013-06-30 18:53:00
12:53 PM,93.0,51.1,24,29.94,10.0,Variable,4.6,18.4,N/A,,Clear,0,2013-06-30 19:53:00
1:53 PM,95.0,48.9,21,29.92,10.0,East,8.1,-,N/A,,Clear,100,2013-06-30 20:53:00
2:53 PM,97.0,46.9,18,29.91,10.0,ESE,6.9,-,0.00,,Clear,110,2013-06-30 21:53:00
3:53 PM,97.0,45.0,17,29.88,10.0,Calm,Calm,-,N/A,,Clear,0,2013-06-30 22:53:00
4:53 PM,97.0,44.1,16,29.88,10.0,North,4.6,-,N/A,,Clear,350,2013-06-30 23:53:00
5:53 PM,93.0,52.0,25,29.87,10.0,Calm,Calm,-,N/A,,Clear,0,2013-07-01 00:53:00
6:53 PM,82.0,51.1,34,29.89,10.0,SSW,19.6,29.9,0.00,,Partly Cloudy,210,2013-07-01 01:53:00
7:53 PM,84.9,45.0,25,29.87,10.0,SSW,17.3,-,N/A,,Scattered Clouds,210,2013-07-01 02:53:00
8:53 PM,79.0,52.0,39,29.89,10.0,East,16.1,28.8,0.00,,Partly Cloudy,80,2013-07-01 03:53:00
9:53 PM,81.0,48.0,31,29.87,10.0,NNE,18.4,26.5,0.00,,Partly Cloudy,30,2013-07-01 04:53:00
10:53 PM,75.9,48.0,37,29.88,10.0,NNE,10.4,-,N/A,,Clear,30,2013-07-01 05:53:00
11:53 PM,72.0,48.0,43,29.90,10.0,ENE,5.8,-,N/A,,Clear,60,2013-07-01 06:53:00